This is the latest recevied weather packets stored in our database for station/object F8KHU-13. If no packets are shown the sender has not sent any weather packets the latest 10 day(s).
| Time | Temp. | Humidity | Pressure | Rain* | Wind** | Luminosity | Snow |
|---|---|---|---|---|---|---|---|
| 1777547435 | 21.67° C | 27% | 1025.7 hPa | 0 mm | - | 0 W/m² | - |
| 1777547415 | 21.67° C | 27% | 1025.6 hPa | 0 mm | - | 0 W/m² | - |
| 1777547395 | 21.67° C | 27% | 1025.7 hPa | 0 mm | - | 0 W/m² | - |
| 1777546535 | 18.33° C | 28% | 1025.6 hPa | 0 mm | - | 0 W/m² | - |
| 1777546515 | 18.33° C | 28% | 1025.7 hPa | 0 mm | - | 0 W/m² | - |
| 1777546495 | 18.33° C | 28% | 1025.7 hPa | 0 mm | - | 0 W/m² | - |
| 1777545635 | 17.78° C | 29% | 1025.8 hPa | 0 mm | - | 0 W/m² | - |
| 1777545615 | 17.78° C | 29% | 1025.7 hPa | 0 mm | - | 0 W/m² | - |
| 1777545595 | 17.78° C | 29% | 1025.8 hPa | 0 mm | - | 0 W/m² | - |
| 1777544735 | 17.22° C | 29% | 1025.8 hPa | 0 mm | - | 0 W/m² | - |
| 1777544715 | 17.22° C | 29% | 1025.8 hPa | 0 mm | - | 0 W/m² | - |
| 1777544695 | 17.22° C | 29% | 1025.8 hPa | 0 mm | - | 0 W/m² | - |
| 1777543835 | 16.67° C | 29% | 1025.8 hPa | 0 mm | - | 0 W/m² | - |
| 1777543815 | 16.67° C | 29% | 1025.9 hPa | 0 mm | - | 0 W/m² | - |
| 1777543795 | 16.67° C | 29% | 1025.8 hPa | 0 mm | - | 0 W/m² | - |
| 1777542935 | 16.11° C | 29% | 1026 hPa | 0 mm | - | 0 W/m² | - |
| 1777542896 | 16.11° C | 29% | 1026 hPa | 0 mm | - | 0 W/m² | - |
| 1777542035 | 16.11° C | 29% | 1025.9 hPa | 0 mm | - | 0 W/m² | - |
| 1777542016 | 16.11° C | 29% | 1026.1 hPa | 0 mm | - | 0 W/m² | - |
| 1777541996 | 16.11° C | 29% | 1026 hPa | 0 mm | - | 0 W/m² | - |
| 1777541116 | 15.56° C | 29% | 1026.1 hPa | 0 mm | - | 0 W/m² | - |
| 1777541095 | 15.56° C | 29% | 1026.1 hPa | 0 mm | - | 0 W/m² | - |
| 1777540236 | 15° C | 30% | 1026 hPa | 0 mm | - | 0 W/m² | - |
| 1777540216 | 15° C | 30% | 1026.1 hPa | 0 mm | - | 0 W/m² | - |
| 1777540196 | 15° C | 30% | 1026.1 hPa | 0 mm | - | 0 W/m² | - |
* Rain latest hour (hover to see other rain measurements)
** Current wind speed in m/s (hover to see current wind gust speed)